TimeCDT,TemperatureF,Dew PointF,Humidity,Sea Level PressureIn,VisibilityMPH,Wind Direction,Wind SpeedMPH,Gust SpeedMPH,PrecipitationIn,Events,Conditions,WindDirDegrees,DateUTC
12:15 AM,47.1,41.4,80,30.30,10.0,ENE,5.8,-,N/A,,Scattered Clouds,70,2013-05-26 05:15:00
12:35 AM,46.8,40.5,79,30.30,10.0,East,3.5,-,N/A,,Clear,80,2013-05-26 05:35:00
12:55 AM,45.5,40.1,81,30.29,10.0,Calm,Calm,-,N/A,,Clear,0,2013-05-26 05:55:00
1:15 AM,45.1,39.6,81,30.29,10.0,ENE,5.8,-,N/A,,Clear,60,2013-05-26 06:15:00
1:35 AM,45.5,38.8,78,30.28,10.0,ENE,5.8,-,N/A,,Clear,60,2013-05-26 06:35:00
1:55 AM,44.8,37.9,77,30.27,10.0,ENE,5.8,-,N/A,,Clear,60,2013-05-26 06:55:00
2:15 AM,44.8,36.9,74,30.27,10.0,NE,4.6,-,N/A,,Clear,50,2013-05-26 07:15:00
2:35 AM,44.8,36.9,74,30.26,10.0,Calm,Calm,-,N/A,,Clear,0,2013-05-26 07:35:00
2:55 AM,44.1,36.9,76,30.26,10.0,Calm,Calm,-,N/A,,Clear,0,2013-05-26 07:55:00
3:15 AM,44.2,36.7,75,30.27,10.0,Calm,Calm,-,N/A,,Clear,0,2013-05-26 08:15:00
3:35 AM,42.6,37.4,82,30.26,10.0,Calm,Calm,-,N/A,,Clear,0,2013-05-26 08:35:00
3:55 AM,41.9,37.9,86,30.26,10.0,Calm,Calm,-,N/A,,Clear,0,2013-05-26 08:55:00
4:15 AM,42.1,38.1,86,30.27,10.0,Calm,Calm,-,N/A,,Scattered Clouds,0,2013-05-26 09:15:00
4:35 AM,42.1,38.3,86,30.28,10.0,Calm,Calm,-,N/A,,Scattered Clouds,0,2013-05-26 09:35:00
4:55 AM,42.6,38.5,85,30.27,10.0,Calm,Calm,-,N/A,,Clear,0,2013-05-26 09:55:00
5:15 AM,42.3,39.0,88,30.27,10.0,Calm,Calm,-,N/A,,Scattered Clouds,0,2013-05-26 10:15:00
5:35 AM,42.4,39.7,90,30.27,10.0,Calm,Calm,-,N/A,,Scattered Clouds,0,2013-05-26 10:35:00
5:55 AM,42.6,39.7,90,30.27,10.0,Calm,Calm,-,N/A,,Clear,0,2013-05-26 10:55:00
6:15 AM,45.5,42.4,89,30.28,10.0,Calm,Calm,-,N/A,,Clear,0,2013-05-26 11:15:00
6:35 AM,46.9,41.5,81,30.29,10.0,Calm,Calm,-,N/A,,Clear,0,2013-05-26 11:35:00
6:55 AM,49.1,41.9,76,30.29,10.0,ENE,3.5,-,N/A,,Clear,70,2013-05-26 11:55:00
7:15 AM,49.5,42.3,76,30.29,10.0,East,3.5,-,N/A,,Clear,80,2013-05-26 12:15:00
7:35 AM,50.4,42.8,75,30.29,10.0,East,4.6,-,N/A,,Clear,80,2013-05-26 12:35:00
7:55 AM,52.2,43.5,72,30.29,10.0,East,3.5,-,N/A,,Clear,100,2013-05-26 12:55:00
8:15 AM,54.7,44.8,69,30.30,10.0,ESE,5.8,-,N/A,,Clear,110,2013-05-26 13:15:00
8:35 AM,54.7,44.8,69,30.29,10.0,ESE,4.6,-,N/A,,Clear,120,2013-05-26 13:35:00
8:55 AM,55.8,45.7,69,30.29,10.0,ESE,6.9,-,N/A,,Clear,110,2013-05-26 13:55:00
9:15 AM,56.5,45.9,68,30.29,10.0,SE,6.9,-,N/A,,Clear,130,2013-05-26 14:15:00
9:35 AM,57.7,46.2,65,30.29,10.0,SE,6.9,-,N/A,,Clear,130,2013-05-26 14:35:00
9:55 AM,59.2,45.7,61,30.28,10.0,SE,8.1,-,N/A,,Scattered Clouds,130,2013-05-26 14:55:00
10:15 AM,60.8,46.2,59,30.29,10.0,ESE,8.1,-,N/A,,Scattered Clouds,120,2013-05-26 15:15:00
10:35 AM,61.7,44.4,53,30.28,10.0,SE,5.8,-,N/A,,Mostly Cloudy,130,2013-05-26 15:35:00
10:55 AM,61.0,42.8,51,30.28,10.0,SSE,10.4,-,N/A,,Overcast,160,2013-05-26 15:55:00
11:15 AM,61.0,43.3,52,30.28,10.0,South,6.9,-,N/A,,Overcast,170,2013-05-26 16:15:00
11:55 AM,61.3,43.0,51,30.28,10.0,SSE,8.1,-,N/A,,Overcast,150,2013-05-26 16:55:00
12:15 PM,61.2,43.7,53,30.27,10.0,South,6.9,-,N/A,Rain,Light Rain,170,2013-05-26 17:15:00
12:35 PM,58.3,46.6,65,30.27,10.0,South,4.6,-,N/A,,Light Drizzle,180,2013-05-26 17:35:00
12:55 PM,58.5,46.8,65,30.26,10.0,SE,4.6,-,N/A,,Drizzle,130,2013-05-26 17:55:00
1:15 PM,59.9,48.9,67,30.24,10.0,ESE,6.9,-,N/A,,Mostly Cloudy,120,2013-05-26 18:15:00
1:35 PM,59.5,48.4,67,30.25,10.0,Calm,Calm,-,N/A,,Mostly Cloudy,0,2013-05-26 18:35:00
1:55 PM,61.0,49.1,65,30.24,10.0,SSE,4.6,-,N/A,,Mostly Cloudy,160,2013-05-26 18:55:00
2:15 PM,60.8,48.0,63,30.24,10.0,South,6.9,-,N/A,,Mostly Cloudy,190,2013-05-26 19:15:00
2:35 PM,60.8,48.4,64,30.25,10.0,South,5.8,-,N/A,,Overcast,170,2013-05-26 19:35:00
2:55 PM,61.7,48.0,61,30.25,10.0,SSE,5.8,-,N/A,,Mostly Cloudy,160,2013-05-26 19:55:00
3:15 PM,62.6,48.4,60,30.24,10.0,SE,6.9,-,N/A,,Mostly Cloudy,140,2013-05-26 20:15:00
3:35 PM,62.4,49.5,63,30.22,10.0,ESE,3.5,-,N/A,,Scattered Clouds,120,2013-05-26 20:35:00
3:55 PM,62.6,49.5,62,30.21,10.0,SE,8.1,-,N/A,,Scattered Clouds,130,2013-05-26 20:55:00
4:15 PM,62.1,50.9,67,30.20,10.0,SE,6.9,-,N/A,,Light Drizzle,130,2013-05-26 21:15:00
4:35 PM,61.5,51.1,69,30.20,10.0,SE,5.8,-,N/A,,Scattered Clouds,140,2013-05-26 21:35:00
4:55 PM,62.2,51.3,67,30.19,10.0,ESE,9.2,-,N/A,,Clear,120,2013-05-26 21:55:00
5:15 PM,61.9,50.9,67,30.19,10.0,SE,6.9,-,N/A,,Scattered Clouds,140,2013-05-26 22:15:00
5:35 PM,61.3,50.9,69,30.23,10.0,Calm,Calm,-,N/A,Rain,Light Rain,0,2013-05-26 22:35:00
5:55 PM,58.1,54.5,88,30.18,4.0,ESE,8.1,-,0.05,Rain,Rain,120,2013-05-26 22:55:00
6:15 PM,57.7,54.1,88,30.19,7.0,Calm,Calm,-,0.01,Rain,Light Rain,0,2013-05-26 23:15:00
6:35 PM,58.3,54.9,88,30.19,7.0,Calm,Calm,-,0.01,Rain,Rain,0,2013-05-26 23:35:00
6:55 PM,58.1,53.8,86,30.18,10.0,ESE,5.8,-,0.01,,Mostly Cloudy,120,2013-05-26 23:55:00
7:15 PM,57.6,53.8,87,30.17,10.0,East,6.9,-,N/A,,Mostly Cloudy,100,2013-05-27 00:15:00
7:35 PM,57.4,53.8,88,30.16,10.0,East,8.1,-,N/A,,Mostly Cloudy,90,2013-05-27 00:35:00
7:55 PM,57.4,53.4,87,30.16,10.0,East,6.9,-,N/A,,Scattered Clouds,100,2013-05-27 00:55:00
8:15 PM,57.2,53.2,87,30.15,10.0,ESE,8.1,-,N/A,,Clear,110,2013-05-27 01:15:00
8:35 PM,57.2,53.6,88,30.15,10.0,ESE,8.1,-,N/A,,Mostly Cloudy,110,2013-05-27 01:35:00
8:55 PM,57.6,53.1,85,30.16,10.0,East,5.8,-,N/A,,Overcast,100,2013-05-27 01:55:00
9:15 PM,57.7,52.7,83,30.16,10.0,ESE,6.9,-,N/A,,Overcast,110,2013-05-27 02:15:00
9:35 PM,56.8,52.3,85,30.16,7.0,ESE,9.2,-,0.02,Rain,Rain,110,2013-05-27 02:35:00
9:55 PM,56.1,52.9,89,30.15,5.0,ESE,5.8,-,0.06,Rain,Rain,120,2013-05-27 02:55:00
10:15 PM,55.8,52.7,89,30.15,5.0,SE,5.8,-,0.04,Rain,Rain,130,2013-05-27 03:15:00
10:35 PM,55.6,52.9,91,30.15,4.0,ESE,4.6,-,0.07,Rain,Light Rain,110,2013-05-27 03:35:00
10:55 PM,55.6,53.2,92,30.14,5.0,East,4.6,-,0.08,Rain-Thunderstorm,Rain,100,2013-05-27 03:55:00
11:15 PM,55.8,53.6,92,30.14,7.0,East,4.6,-,N/A,,Overcast,90,2013-05-27 04:15:00
11:35 PM,55.9,53.6,92,30.14,7.0,East,5.8,-,N/A,,Overcast,100,2013-05-27 04:35:00
11:55 PM,56.3,53.6,91,30.14,7.0,East,8.1,-,N/A,,Overcast,100,2013-05-27 04:55:00